Washington State Observations

526 
ASUS46 KSEW 310320
RWRWA 

WASHINGTON REGIONAL WEATHER ROUNDUP
NATIONAL WEATHER SERVICE SEATTLE WA
800 PM PDT FRI JUL 30 2021

NOTE:"FAIR" INDICATES FEW OR NO CLOUDS BELOW 12,000 FEET WITH NO 
SIGNIFICANT WEATHER AND/OR OBSTRUCTIONS TO VISIBILITY.

WAZ507-509-555>559-310400-
SEATTLE, TACOMA, EVERETT, AND VICINITY
  
CITY           SKY/WX    TMP DP  RH WIND       PRES   REMARKS
EVERETT        PTCLDY    74  53  48 N7        29.98R                  
BOEING FIELD   PTCLDY    84  53  34 NW7       29.93R                  
RENTON         PTCLDY    87  55  33 NW7       29.92R                  
SEATAC AIRPORT PTCLDY    86  51  29 N9        29.95R                  
JBLM-MCCHORD   PTCLDY    87  49  26 NE6       29.93S                  
PUYALLUP       FAIR      86  54  32 CALM      29.95S                  
BREMERTON      PTCLDY    85  51  31 E7        29.95S                  
JBLM-FT LEWIS  PTCLDY    89  49  25 N6        29.93R                  
TACOMA NARROWS PTCLDY    82  50  32 N12       29.94R                  
$$
 
WAZ001-503-506-510-514-515-310400-
NORTH INTERIOR
  
CITY           SKY/WX    TMP DP  RH WIND       PRES   REMARKS
BELLINGHAM     CLEAR     80  60  50 VRB3      29.93S                  
FRIDAY HARBOR  CLEAR     74  55  51 W3        29.95S                  
EASTSOUND      CLEAR     75  59  57 S6        29.92S                  
PORT ANGELES   CLEAR     74  55  51 W8        29.98S                  
EDIZ HOOK      FAIR      59  55  84 W18G26    29.97R                  
PORT TOWNSEND  FAIR      75  54  46 NW6       29.94R                  
NAS WHIDBEY    PTCLDY    63  52  67 SW8       29.99S                  
ARLINGTON        N/A     77  57  50 W10       29.95R                  
BURLINGTON     CLEAR     81  59  47 S3        29.94S                  
$$
 
WAZ020-022-039-040-504-511-512-310400-
SOUTHWEST INTERIOR
  
CITY           SKY/WX    TMP DP  RH WIND       PRES   REMARKS
SHELTON        PTCLDY    89  54  30 SE6       29.91R                  
OLYMPIA        PTCLDY    89  46  22 N7        29.93R                  
CHEHALIS       FAIR      86  54  32 NW3       29.92S                  
KELSO          PTCLDY    82  63  52 VRB3      29.92R                  
VANCOUVER      MOCLDY    89  60  37 CALM      29.87R                  
SCAPPOOSE, OR  MOCLDY    92  57  30 NW6       29.86S HX  90           
PORTLAND, OR   MOCLDY    86  64  47 E3        29.87R                  
$$
 
WAZ021-516-517-310400-
WASHINGTON COAST
  
CITY           SKY/WX    TMP DP  RH WIND       PRES   REMARKS
FORKS          CLEAR     67  50  54 NW12G21   29.99S                  
HOQUIAM        CLEAR     65  56  72 W12       29.97S                  
ASTORIA, OR    PTCLDY    62  56  80 SW3       29.98R                  
$$
 
WAZ019-023-024-040-567>569-310400-
CASCADE MOUNTAINS AND COLUMBIA GORGE
  
CITY           SKY/WX    TMP DP  RH WIND       PRES   REMARKS
STAMPEDE PASS  PTCLDY    77  56  48 SW6       30.17R                  
TROUTDALE, OR  MOCLDY    84  65  52 SE5       29.87R                  
HOOD RIVER, OR MOCLDY    79  64  61 CALM      29.87S                  
THE DALLES, OR MOCLDY    92  60  34 NE6       29.82S HX  91           
$$

WAZ026-027-041>044-520-521-310400-
EAST SLOPES
  
CITY           SKY/WX    TMP DP  RH WIND       PRES   REMARKS
OMAK           MOCLDY    91  49  23 CALM      29.92S                  
WENATCHEE      PTCLDY    93  51  23 NE5       29.90S HX  90           
ELLENSBURG     PTCLDY    86  61  42 NW5       29.95S                  
YAKIMA         PTCLDY    88  61  40 W6        29.89S                  
SUNNYSIDE ARPT PTCLDY    85  64  48 W5        29.86R                  
YAKIMA TC      FAIR      94  44  18 SE6       29.91R HX  90           
$$

WAZ028-034-035-310400-
COLUMBIA BASIN
  
CITY           SKY/WX    TMP DP  RH WIND       PRES   REMARKS
EPHRATA        CLEAR     99  43  14 W6        29.90S HX  95           
MOSES LAKE     CLEAR     99  46  16 W8        29.90S HX  95           
PASCO          PTCLDY    87  66  49 N9        29.80S                  
RICHLAND ARPT  PTCLDY   102  51  18 N8        29.81R HX  99           
HERMISTON, OR  MOCLDY    97  49  19 SE6       29.81R HX  94           
$$

WAZ036>038-310400-
NORTHEAST WASHINGTON
  
CITY           SKY/WX    TMP DP  RH WIND       PRES   REMARKS
SPOKANE GEIGER MOCLDY    97  40  14 NE5       30.01R HX  92           
SPOKANE FELTS  CLEAR     92  41  17 CALM      29.97S                  
FAIRCHILD AFB  PTCLDY    93  39  15 NE5       30.02R                  
COEURDALENE,ID CLEAR     92  44  19 CALM      30.02R                  
DEER PARK      CLEAR     91  40  16 CALM      30.00R                  
$$

WAZ029>033-310400-
SOUTHEAST WASHINGTON
  
CITY           SKY/WX    TMP DP  RH WIND       PRES   REMARKS
PULLMAN        PTCLDY    91  39  16 NE8       30.02R                  
LEWISTON, ID   PTCLDY   102  49  16 NE6       29.88S HX  99           
WALLA WALLA    PTCLDY    95  40  14 NE9       29.85R HX  91           
PENDLETON, OR  PTCLDY    95  49  20 N12       29.87R HX  92           
$$